Weather History for KCEZ - December, 2013

Change the Weather History Date:

Monday, December 9, 2013

  Actual Average Record
Temperature  
Mean Temperature 8 °F 29 °F  
Max Temperature 22 °F 43 °F 51 °F (2014)
Min Temperature -7 °F 16 °F -7 °F (2013)
Degree Days  
Heating Degree Days 57 36  
Month to date heating degree days 390 314  
Since 1 July heating degree days 1862 1839  
Cooling Degree Days 0 0  
Month to date cooling degree days 0 0  
Year to date cooling degree days 667 426  
Moisture  
Dew Point -6 °F    
Average Humidity 63    
Maximum Humidity 87    
Minimum Humidity 39    
Precipitation  
Precipitation 0.00 in 0.02 in 0.04 in (1998)
Month to date precipitation 0.20 0.22  
Year to date precipitation 13.52 12.95  
Sea Level Pressure  
Sea Level Pressure 30.47 in    
Wind  
Wind Speed 7 mph (NE)    
Max Wind Speed 17 mph    
Max Gust Speed 22 mph    
Visibility 10 miles    
Events      
T = Trace of Precipitation, MM = Missing Value Source: NWS Daily Summary

Daily Weather History Graph

Daily Weather History Graph

Search for Another Location

Airport or City:

Trip Planner

Search our weather history database for the weather conditions in past years. The results will help you decide how hot, cold, wet, or windy it might be!

Date:

Astronomy

Dec. 09, 2013 Rise Set
Actual Time 7:17 AM MST 4:56 PM MST
Civil Twilight 6:48 AM MST 5:25 PM MST
Nautical Twilight 6:15 AM MST 5:58 PM MST
Astronomical Twilight 5:43 AM MST 6:30 PM MST
Moon 12:19 PM MST (12/9) No Moon Set
Length of Visible Light 10h 37m
Length of Day
9h 39m
First Quarter, 52% of the Moon is Illuminated
Dec 9
First Quarter
Dec 17
Full
Dec 25
Last Quarter
Jan 1
New
Jan 7
First Quarter

Hourly Weather History & Observations

Time (MST) Temp. Windchill Dew Point Humidity Pressure Visibility Wind Dir Wind Speed Gust Speed Precip Events Conditions
12:53 AM -5.1 °F - -9.0 °F 83% 30.22 in 10.0 mi Calm Calm - N/A   Clear
1:53 AM -6.0 °F -18.6 °F -9.9 °F 83% 30.24 in 10.0 mi NE 5.8 mph - N/A   Clear
2:53 AM -6.0 °F -18.6 °F -11.0 °F 79% 30.24 in 10.0 mi ENE 5.8 mph - N/A   Clear
3:53 AM -6.0 °F -20.1 °F -11.0 °F 79% 30.24 in 10.0 mi East 6.9 mph - N/A   Clear
4:53 AM -7.1 °F -21.4 °F -11.0 °F 83% 30.30 in 10.0 mi ENE 6.9 mph - N/A   Clear
5:53 AM -5.1 °F -13.6 °F -9.9 °F 80% 30.35 in 10.0 mi ENE 3.5 mph - N/A   Scattered Clouds
6:53 AM -6.0 °F -14.7 °F -11.0 °F 79% 30.41 in 10.0 mi ENE 3.5 mph - N/A   Mostly Cloudy
7:53 AM -6.0 °F -20.1 °F -11.0 °F 79% 30.46 in 10.0 mi East 6.9 mph - N/A   Clear
8:53 AM 1.9 °F -9.2 °F -5.1 °F 72% 30.46 in 10.0 mi ENE 5.8 mph - N/A   Clear
9:53 AM 12.0 °F 2.7 °F -0.0 °F 59% 30.45 in 10.0 mi ENE 5.8 mph - N/A   Clear
10:53 AM 17.1 °F 11.7 °F 1.9 °F 52% 30.46 in 10.0 mi Variable 3.5 mph - N/A   Clear
11:53 AM 19.9 °F 7.3 °F 1.0 °F 44% 30.45 in 10.0 mi NNW 12.7 mph 20.7 mph N/A   Clear
12:53 PM 21.0 °F 7.6 °F -0.0 °F 40% 30.46 in 10.0 mi North 15.0 mph - N/A   Clear
1:53 PM 21.0 °F 9.3 °F -0.9 °F 38% 30.47 in 10.0 mi NNW 11.5 mph - N/A   Clear
2:53 PM 21.0 °F 9.9 °F -0.9 °F 38% 30.49 in 10.0 mi NNW 10.4 mph - N/A   Clear
3:53 PM 19.9 °F 8.6 °F -2.0 °F 38% 30.52 in 10.0 mi NW 10.4 mph - N/A   Clear
4:53 PM 16.0 °F 5.3 °F -2.0 °F 45% 30.57 in 10.0 mi NNW 8.1 mph - N/A   Clear
5:53 PM 14.0 °F 5.1 °F -2.9 °F 47% 30.59 in 10.0 mi NNW 5.8 mph - N/A   Clear
6:53 PM 10.0 °F - -2.9 °F 56% 30.65 in 10.0 mi Calm Calm - N/A   Clear
7:53 PM 3.9 °F -9.4 °F -4.0 °F 70% 30.69 in 10.0 mi ENE 8.1 mph - N/A   Clear
8:53 PM 1.0 °F -14.9 °F -6.0 °F 72% 30.67 in 10.0 mi NE 10.4 mph - N/A   Clear
9:53 PM -2.9 °F -13.3 °F -8.0 °F 79% 30.65 in 10.0 mi SE 4.6 mph - N/A   Clear
10:53 PM -4.0 °F -16.3 °F -8.0 °F 83% 30.66 in 10.0 mi ENE 5.8 mph - N/A   Clear
11:53 PM -5.1 °F -19.1 °F -9.9 °F 80% 30.68 in 10.0 mi ENE 6.9 mph - N/A   Clear